| time (UTC) | temp C | wind direction | speed KPH | gust KPH | rain 1hr cm | rain 24hr cm | rain mn cm | humidity % | barometer mb |
| 20260903130029 | 19 | 146 | 0.0 | 0.0 | 0.08 | 0.36 | 0.33 | 94 | 1013.2 |
| 20260903124527 | 18 | 146 | 0.0 | 1.6 | 0.08 | 0.36 | 0.33 | 94 | 1013.2 |
| 20260903123025 | 18 | 152 | 0.0 | 1.6 | 0.08 | 0.33 | 0.30 | 94 | 1013.5 |
| 20260903121530 | 18 | 151 | 0.0 | 1.6 | 0.08 | 0.30 | 0.28 | 94 | 1013.7 |
| 20260903120036 | 18 | 150 | 0.0 | 12.9 | 0.08 | 0.28 | 0.25 | 94 | 1013.7 |
| 20260903114520 | 18 | 134 | 0.0 | 8.0 | 0.08 | 0.28 | 0.25 | 94 | 1013.7 |
| 20260903113021 | 18 | 147 | 1.6 | 12.9 | 0.05 | 0.25 | 0.23 | 93 | 1013.7 |
| 20260903111515 | 18 | 159 | 0.0 | 4.8 | 0.03 | 0.23 | 0.20 | 93 | 1013.7 |
| 20260903110014 | 17 | 170 | 1.6 | 6.4 | 0.05 | 0.20 | 0.18 | 93 | 1013.9 |
| 20260903104513 | 17 | 150 | 0.0 | 9.7 | 0.05 | 0.20 | 0.18 | 93 | 1013.6 |
| 20260903103011 | 17 | 195 | 1.6 | 11.3 | 0.08 | 0.20 | 0.18 | 93 | 1013.4 |
| 20260903101520 | 17 | 161 | 0.0 | 11.3 | 0.08 | 0.20 | 0.18 | 92 | 1013.4 |
| 20260903100020 | 17 | 142 | 0.0 | 8.0 | 0.05 | 0.15 | 0.13 | 92 | 1013.6 |
| 20260903094518 | 17 | 180 | 1.6 | 8.0 | 0.13 | 0.15 | 0.13 | 92 | 1013.7 |
| 20260903093004 | 17 | 162 | 1.6 | 8.0 | 0.10 | 0.13 | 0.10 | 91 | 1014.0 |
| 20260903091504 | 17 | 182 | 3.2 | 9.7 | 0.10 | 0.13 | 0.10 | 90 | 1014.0 |
| 20260903090002 | 17 | 167 | 3.2 | 9.7 | 0.08 | 0.10 | 0.08 | 90 | 1014.1 |
| 20260903084601 | 17 | 171 | 0.0 | 9.7 | 0.00 | 0.03 | 0.00 | 89 | 1014.5 |
| 20260903083057 | 17 | 132 | 0.0 | 9.7 | 0.00 | 0.03 | 0.00 | 89 | 1014.7 |
| 20260903081554 | 17 | 178 | 1.6 | 6.4 | 0.00 | 0.03 | 0.00 | 89 | 1014.9 |
| 20260903080053 | 17 | 170 | 0.0 | 9.7 | 0.00 | 0.03 | 0.00 | 88 | 1015.1 |
| 20260903074551 | 17 | 171 | 1.6 | 8.0 | 0.00 | 0.03 | 0.00 | 88 | 1015.2 |
| 20260903073050 | 17 | 133 | 0.0 | 3.2 | 0.00 | 0.03 | 0.00 | 87 | 1015.2 |
| 20260903071558 | 17 | 117 | 0.0 | 3.2 | 0.00 | 0.03 | 0.00 | 86 | 1015.6 |
| 20260903070045 | 17 | 118 | 0.0 | 1.6 | 0.00 | 0.03 | 0.00 | 86 | 1015.9 |
| 20260903064549 | 17 | 127 | 0.0 | 1.6 | 0.00 | 0.03 | 0.00 | 86 | 1016.0 |
| 20260903063042 | 17 | 128 | 0.0 | 6.4 | 0.00 | 0.03 | 0.00 | 86 | 1016.1 |
| 20260903061540 | 17 | 134 | 0.0 | 1.6 | 0.00 | 0.03 | 0.00 | 86 | 1016.5 |
| 20260903060036 | 17 | 155 | 0.0 | 3.2 | 0.00 | 0.03 | 0.00 | 87 | 1017.2 |
| 20260903054536 | 17 | 118 | 0.0 | 1.6 | 0.00 | 0.03 | 0.00 | 88 | 1017.3 |
| 20260903053036 | 17 | 111 | 0.0 | 4.8 | 0.00 | 0.03 | 0.00 | 89 | 1017.2 |
| 20260903051552 | 17 | 146 | 0.0 | 3.2 | 0.00 | 0.03 | 0.00 | 89 | 1017.7 |
| 20260903050032 | 17 | 128 | 0.0 | 1.6 | 0.00 | 0.03 | 0.00 | 90 | 1017.6 |
| 20260903044539 | 17 | 126 | 0.0 | 0.0 | 0.00 | 0.03 | 0.00 | 90 | 1017.7 |
| 20260903043107 | 17 | 126 | 0.0 | 3.2 | 0.00 | 0.03 | 0.00 | 90 | 1017.7 |
| 20260903041530 | 17 | 123 | 0.0 | 4.8 | 0.00 | 0.03 | 0.00 | 90 | 1017.6 |
| 20260903040026 | 17 | 119 | 0.0 | 3.2 | 0.00 | 0.03 | 0.00 | 90 | 1017.4 |
| 20260903034535 | 17 | 123 | 0.0 | 0.0 | 0.00 | 0.03 | 0.03 | 89 | 1017.8 |
| 20260903033022 | 17 | 123 | 0.0 | 0.0 | 0.00 | 0.03 | 0.03 | 88 | 1018.1 |
| 20260903031521 | 17 | 123 | 0.0 | 0.0 | 0.00 | 0.03 | 0.03 | 89 | 1018.3 |
| 20260903030021 | 17 | 123 | 0.0 | 0.0 | 0.00 | 0.03 | 0.03 | 89 | 1018.5 |
| 20260903024524 | 17 | 123 | 0.0 | 1.6 | 0.00 | 0.03 | 0.03 | 89 | 1018.3 |
| 20260903023020 | 17 | 123 | 0.0 | 6.4 | 0.00 | 0.03 | 0.03 | 89 | 1018.2 |
| 20260903021519 | 17 | 165 | 0.0 | 11.3 | 0.00 | 0.03 | 0.03 | 90 | 1018.2 |
| 20260903020023 | 17 | 163 | 1.6 | 6.4 | 0.00 | 0.03 | 0.03 | 90 | 1018.2 |
| 20260903014521 | 16 | 145 | 0.0 | 8.0 | 0.00 | 0.03 | 0.03 | 89 | 1018.1 |
| 20260903013019 | 16 | 176 | 0.0 | 1.6 | 0.00 | 0.03 | 0.03 | 87 | 1018.5 |
| 20260903011518 | 16 | 177 | 0.0 | 0.0 | 0.00 | 0.03 | 0.03 | 86 | 1018.7 |
| 20260903010017 | 17 | 177 | 0.0 | 0.0 | 0.00 | 0.03 | 0.03 | 85 | 1018.6 |
| 20260903004516 | 17 | 177 | 0.0 | 0.0 | 0.00 | 0.03 | 0.03 | 85 | 1018.8 |
| 20260903003017 | 17 | 177 | 0.0 | 0.0 | 0.00 | 0.03 | 0.03 | 83 | 1018.8 |
| 20260903001517 | 17 | 177 | 0.0 | 0.0 | 0.00 | 0.03 | 0.03 | 82 | 1019.2 |
| 20260903000015 | 18 | 177 | 0.0 | 0.0 | 0.00 | 0.03 | 0.03 | 81 | 1019.5 |
| 20260902234521 | 18 | 177 | 0.0 | 0.0 | 0.00 | 0.03 | 0.03 | 81 | 1019.4 |
| 20260902233013 | 18 | 177 | 0.0 | 0.0 | 0.00 | 0.03 | 0.03 | 80 | 1019.3 |
| 20260902231514 | 19 | 177 | 0.0 | 3.2 | 0.00 | 0.03 | 0.03 | 78 | 1019.2 |
| 20260902230012 | 20 | 184 | 0.0 | 3.2 | 0.00 | 0.03 | 0.03 | 77 | 1019.5 |
| 20260902224512 | 20 | 185 | 0.0 | 6.4 | 0.00 | 0.03 | 0.03 | 75 | 1019.6 |
| 20260902223022 | 20 | 87 | 0.0 | 6.4 | 0.00 | 0.03 | 0.03 | 74 | 1019.5 |
| 20260902221516 | 20 | 126 | 0.0 | 3.2 | 0.00 | 0.03 | 0.03 | 73 | 1019.7 |
| 20260902220011 | 21 | 121 | 0.0 | 3.2 | 0.00 | 0.03 | 0.03 | 72 | 1019.8 |
| 20260902214510 | 21 | 138 | 1.6 | 6.4 | 0.00 | 0.03 | 0.03 | 71 | 1019.5 |
| 20260902213009 | 21 | 147 | 0.0 | 9.7 | 0.00 | 0.03 | 0.03 | 71 | 1019.2 |
| 20260902211508 | 21 | 141 | 0.0 | 8.0 | 0.00 | 0.03 | 0.03 | 71 | 1019.6 |
| 20260902210008 | 21 | 48 | 1.6 | 12.9 | 0.00 | 0.03 | 0.03 | 70 | 1019.5 |
| 20260902204513 | 22 | 42 | 0.0 | 4.8 | 0.00 | 0.03 | 0.03 | 69 | 1019.8 |
| 20260902203008 | 22 | 57 | 1.6 | 9.7 | 0.00 | 0.03 | 0.03 | 66 | 1019.9 |
| 20260902201505 | 22 | 80 | 1.6 | 8.0 | 0.00 | 0.03 | 0.03 | 63 | 1019.7 |
| 20260902200005 | 22 | 66 | 1.6 | 12.9 | 0.00 | 0.03 | 0.03 | 60 | 1019.9 |
| 20260902194508 | 23 | 157 | 1.6 | 9.7 | 0.00 | 0.03 | 0.03 | 61 | 1020.0 |
| 20260902193004 | 23 | 63 | 0.0 | 14.5 | 0.00 | 0.03 | 0.03 | 58 | 1020.1 |
| 20260902191503 | 23 | 112 | 3.2 | 9.7 | 0.00 | 0.03 | 0.03 | 59 | 1020.1 |
| 20260902190002 | 22 | 159 | 4.8 | 16.1 | 0.00 | 0.03 | 0.03 | 61 | 1019.9 |
| 20260902184502 | 23 | 69 | 4.8 | 14.5 | 0.00 | 0.05 | 0.03 | 63 | 1019.9 |
| 20260902183003 | 23 | 192 | 1.6 | 14.5 | 0.00 | 0.05 | 0.03 | 60 | 1020.1 |
| 20260902181601 | 23 | 84 | 4.8 | 16.1 | 0.00 | 0.05 | 0.03 | 59 | 1020.1 |
| 20260902180118 | 23 | 39 | 3.2 | 9.7 | 0.00 | 0.05 | 0.03 | 62 | 1020.0 |
| 20260902174600 | 23 | 156 | 1.6 | 12.9 | 0.00 | 0.05 | 0.03 | 61 | 1020.2 |
| 20260902173059 | 23 | 171 | 8.0 | 14.5 | 0.00 | 0.05 | 0.03 | 61 | 1020.3 |
| 20260902171558 | 23 | 48 | 6.4 | 16.1 | 0.00 | 0.05 | 0.03 | 61 | 1020.4 |
| 20260902170059 | 23 | 184 | 3.2 | 12.9 | 0.00 | 0.05 | 0.03 | 60 | 1020.4 |
| 20260902164554 | 23 | 204 | 3.2 | 9.7 | 0.00 | 0.05 | 0.03 | 62 | 1020.5 |
| 20260902163054 | 22 | 45 | 0.0 | 14.5 | 0.00 | 0.05 | 0.03 | 64 | 1020.4 |
| 20260902161554 | 22 | 153 | 1.6 | 11.3 | 0.00 | 0.05 | 0.03 | 62 | 1020.6 |
| 20260902160056 | 22 | 181 | 4.8 | 12.9 | 0.00 | 0.05 | 0.03 | 64 | 1020.7 |
| 20260902154550 | 22 | 71 | 3.2 | 12.9 | 0.00 | 0.08 | 0.03 | 64 | 1021.0 |
| 20260902153048 | 22 | 81 | 0.0 | 12.9 | 0.00 | 0.08 | 0.03 | 67 | 1020.9 |
| 20260902151544 | 22 | 29 | 3.2 | 11.3 | 0.00 | 0.08 | 0.03 | 69 | 1020.9 |
| 20260902150039 | 22 | 11 | 0.0 | 8.0 | 0.03 | 0.08 | 0.03 | 74 | 1021.0 |
| 20260902144535 | 21 | 87 | 1.6 | 8.0 | 0.03 | 0.08 | 0.03 | 77 | 1020.8 |
| 20260902143030 | 20 | 186 | 1.6 | 9.7 | 0.03 | 0.08 | 0.03 | 80 | 1020.7 |
| 20260902141535 | 20 | 30 | 4.8 | 14.5 | 0.03 | 0.08 | 0.03 | 80 | 1020.5 |
| 20260902140024 | 20 | 82 | 3.2 | 9.7 | 0.00 | 0.05 | 0.00 | 82 | 1020.2 |
| 20260902134520 | 19 | 67 | 3.2 | 12.9 | 0.00 | 0.13 | 0.00 | 84 | 1020.3 |
| 20260902133017 | 18 | 57 | 0.0 | 8.0 | 0.00 | 0.13 | 0.00 | 89 | 1020.3 |
| 20260902131521 | 18 | 163 | 0.0 | 4.8 | 0.00 | 0.13 | 0.00 | 92 | 1020.5 |